Weather History for NW Arkansas Airport, AR

Change the Weather History Date:

Tuesday, March 11, 2014

  Actual Average Record
Temperature  
Mean Temperature 60 °F -  
Max Temperature 75 °F - - ()
Min Temperature 46 °F - - ()
Degree Days  
Heating Degree Days 4    
Growing Degree Days 10 (Base 50)    
Moisture  
Dew Point 46 °F    
Average Humidity 60    
Maximum Humidity 86    
Minimum Humidity 42    
Precipitation  
Precipitation 0.00 in - - ()
Sea Level Pressure  
Sea Level Pressure 29.60 in    
Wind  
Wind Speed 10 mph (SSW)    
Max Wind Speed 24 mph    
Max Gust Speed 34 mph    
Visibility 10 miles    
Events      
T = Trace of Precipitation, MM = Missing Value Source: NWS Daily Summary

Daily Weather History Graph

Daily Weather History Graph

Search for Another Location

Airport:

Trip Planner

Search our weather history database for the weather conditions in past years. The results will help you decide how hot, cold, wet, or windy it might be!

Date:

Astronomy

Mar. 11, 2014 Rise Set
Actual Time 7:33 AM CDT 7:21 PM CDT
Civil Twilight 7:08 AM CDT 7:46 PM CDT
Nautical Twilight 6:38 AM CDT 8:16 PM CDT
Astronomical Twilight 6:08 AM CDT 8:46 PM CDT
Moon 3:04 PM CDT (3/11) 4:21 AM CDT (3/11)
Length of Visible Light 12h 38m
Length of Day
11h 47m
Waxing Gibbous, 78% of the Moon is Illuminated
Mar 11
Waxing Gibbous
Mar 16
Full
Mar 23
Last Quarter
Mar 30
New
Apr 7
First Quarter

Hourly Weather History & Observations

Time (CDT) Temp. Dew Point Humidity Pressure Visibility Wind Dir Wind Speed Gust Speed Precip Events Conditions
12:53 AM 52.0 °F 37.9 °F 59% 29.78 in 10.0 mi SSW 4.6 mph - N/A   Clear
1:53 AM 50.0 °F 37.9 °F 63% 29.75 in 10.0 mi South 5.8 mph - N/A   Clear
2:53 AM 51.1 °F 39.0 °F 63% 29.74 in 10.0 mi SSW 5.8 mph - N/A   Clear
3:53 AM 48.0 °F 39.0 °F 71% 29.71 in 10.0 mi South 6.9 mph - N/A   Clear
4:53 AM 48.9 °F 39.0 °F 69% 29.68 in 10.0 mi South 5.8 mph - N/A   Clear
5:53 AM 48.9 °F 39.9 °F 71% 29.68 in 10.0 mi South 5.8 mph - N/A   Clear
6:53 AM 46.9 °F 42.1 °F 83% 29.68 in 10.0 mi South 5.8 mph - N/A   Clear
7:53 AM 48.9 °F 45.0 °F 86% 29.67 in 10.0 mi South 9.2 mph - N/A   Clear
8:53 AM 55.9 °F 48.9 °F 77% 29.65 in 10.0 mi South 10.4 mph - N/A   Clear
9:53 AM 62.1 °F 52.0 °F 70% 29.62 in 10.0 mi South 13.8 mph - N/A   Clear
10:53 AM 66.9 °F 52.0 °F 59% 29.61 in 10.0 mi South 10.4 mph 18.4 mph N/A   Clear
11:53 AM 70.0 °F 52.0 °F 53% 29.60 in 10.0 mi SSW 16.1 mph - N/A   Clear
12:53 PM 72.0 °F 51.1 °F 48% 29.56 in 10.0 mi South 21.9 mph 29.9 mph N/A   Clear
1:53 PM 73.0 °F 52.0 °F 48% 29.53 in 10.0 mi South 19.6 mph 26.5 mph N/A   Clear
2:53 PM 73.9 °F 51.1 °F 45% 29.48 in 10.0 mi SSW 16.1 mph 33.4 mph N/A   Clear
3:53 PM 75.9 °F 51.1 °F 42% 29.45 in 10.0 mi South 24.2 mph 29.9 mph N/A   Clear
4:53 PM 75.0 °F 52.0 °F 44% 29.44 in 10.0 mi South 20.7 mph - N/A   Clear
5:53 PM 73.9 °F 51.1 °F 45% 29.47 in 10.0 mi SSW 17.3 mph 26.5 mph N/A   Mostly Cloudy
6:53 PM 70.0 °F 52.0 °F 53% 29.49 in 10.0 mi SSW 8.1 mph - N/A   Clear
7:53 PM 69.1 °F 51.1 °F 53% 29.50 in 10.0 mi SSW 6.9 mph - N/A   Mostly Cloudy
8:53 PM 66.0 °F 51.1 °F 59% 29.50 in 10.0 mi South 9.2 mph - N/A   Scattered Clouds
9:29 PM 60.8 °F 42.8 °F 52% 29.57 in 10.0 mi WNW 18.4 mph 34.5 mph N/A   Mostly Cloudy
9:53 PM 57.9 °F 42.1 °F 56% 29.58 in 10.0 mi WNW 24.2 mph 33.4 mph N/A   Scattered Clouds
10:53 PM 48.9 °F 37.9 °F 66% 29.66 in 10.0 mi WNW 20.7 mph 28.8 mph N/A   Clear
11:53 PM 48.0 °F 37.0 °F 66% 29.71 in 10.0 mi NW 20.7 mph 29.9 mph N/A   Mostly Cloudy